Binghamton, NY

5:45 AM EST on December 06, 2019 (GMT -0500)
Binghamton Regional-Link

Weather History for KBGM - November, 2019

Change the Weather History Date:

Saturday, November 16, 2019

  Actual Average Record
Temperature  
Mean Temperature 24 °F 38 °F  
Max Temperature 31 °F 45 °F 65 °F (1990)
Min Temperature 17 °F 31 °F 9 °F (1967)
Degree Days  
Heating Degree Days 41 27  
Month to date heating degree days 535 387  
Since 1 July heating degree days 1147 1159  
Cooling Degree Days 0 0  
Month to date cooling degree days 0 0  
Year to date cooling degree days 389 381  
Moisture  
Dew Point 8 °F    
Average Humidity 51    
Maximum Humidity 75    
Minimum Humidity 28    
Precipitation  
Precipitation 0.00 in 0.11 in 2.35 in (2006)
Month to date precipitation 0.82 1.73  
Year to date precipitation 39.33 34.90  
Snow  
Snow 0.00 in 0.20 in 4.00 in (2018)
Month to date snowfall 4.0 2.1  
Since 1 July snowfall 4.0 3.1  
Since 1 September snowfall 4.0 3.1  
Snow Depth T in    
Sea Level Pressure  
Sea Level Pressure 30.42 in    
Wind  
Wind Speed 10 mph ()    
Max Wind Speed 22 mph    
Max Gust Speed 27 mph    
Visibility 9.8 miles    
Events      
T = Trace of Precipitation, MM = Missing Value Source: Averaged Metar Reports

Daily Weather History Graph

Daily Weather History Graph

Search for Another Location

Airport or City:

Astronomy

Nov. 16, 2019 Rise Set
Actual Time 6:55 AM EST 4:41 PM EST
Civil Twilight 6:25 AM EST 5:11 PM EST
Nautical Twilight 5:51 AM EST 5:45 PM EST
Astronomical Twilight 5:17 AM EST 6:18 PM EST
Moon 8:10 PM EST (11/16) 10:49 AM EST (11/16)
Length of Visible Light 10h 46m
Length of Day
9h 46m
Waning Gibbous, 82% of the Moon is Illuminated
Nov 16
Waning Gibbous
Nov 19
Last Quarter
Nov 26
New
Dec 4
First Quarter
Dec 12
Full

Hourly Weather History & Observations

Time (EST) Temp. Windchill Dew Point Humidity Pressure Visibility Wind Dir Wind Speed Gust Speed Precip Events Conditions
12:04 AM 30.0 °F 19.1 °F 23.0 °F 75% 30.26 in 10.0 mi North 15.0 mph - N/A   Overcast
12:34 AM 30.0 °F 18.7 °F 21.9 °F 72% 30.26 in 10.0 mi North 16.1 mph 25.3 mph N/A   Overcast
12:43 AM 30.0 °F 19.1 °F 21.0 °F 69% 30.27 in 10.0 mi North 15.0 mph - N/A   Overcast
12:53 AM 28.9 °F 16.1 °F 21.0 °F 72% 30.33 in 10.0 mi North 19.6 mph 25.3 mph N/A   Overcast
1:23 AM 28.0 °F 17.0 °F 19.0 °F 69% 30.28 in 10.0 mi North 13.8 mph 24.2 mph N/A   Overcast
1:53 AM 26.1 °F 12.7 °F 17.1 °F 69% 30.35 in 10.0 mi North 18.4 mph - N/A   Mostly Cloudy
2:53 AM 23.0 °F 12.4 °F 14.0 °F 68% 30.36 in 10.0 mi North 10.4 mph - N/A   Clear
3:53 AM 21.9 °F 10.4 °F 12.0 °F 66% 30.38 in 10.0 mi NNE 11.5 mph - N/A   Clear
4:53 AM 19.0 °F 9.0 °F 6.1 °F 57% 30.40 in 10.0 mi NNE 8.1 mph - N/A   Clear
5:53 AM 18.0 °F 6.1 °F 6.1 °F 60% 30.43 in 10.0 mi NNE 10.4 mph - N/A   Clear
6:53 AM 17.1 °F 5.8 °F 5.0 °F 59% 30.47 in 10.0 mi NE 9.2 mph - N/A   Clear
7:04 AM 17.1 °F 7.6 °F 5.0 °F 59% 30.40 in 2.5 mi NNE 6.9 mph - N/A   Haze
7:13 AM 17.1 °F 7.6 °F 5.0 °F 59% 30.41 in 10.0 mi NE 6.9 mph - N/A   Clear
7:53 AM 18.0 °F 6.9 °F 5.0 °F 57% 30.50 in 10.0 mi NE 9.2 mph - N/A   Clear
8:53 AM 19.0 °F 8.2 °F 5.0 °F 54% 30.52 in 10.0 mi NE 9.2 mph - N/A   Clear
9:53 AM 21.9 °F 14.5 °F 6.1 °F 51% 30.52 in 10.0 mi East 5.8 mph - N/A   Clear
10:53 AM 25.0 °F 18.1 °F 3.9 °F 41% 30.52 in 10.0 mi East 5.8 mph - N/A   Clear
11:53 AM 27.0 °F 19.5 °F 5.0 °F 39% 30.50 in 10.0 mi NE 6.9 mph - N/A   Clear
12:53 PM 28.9 °F 21.9 °F 6.1 °F 38% 30.47 in 10.0 mi East 6.9 mph - N/A   Clear
1:53 PM 30.0 °F 23.2 °F 3.0 °F 32% 30.46 in 10.0 mi NE 6.9 mph - N/A   Clear
2:53 PM 30.9 °F 22.8 °F 3.0 °F 31% 30.45 in 10.0 mi ENE 9.2 mph - N/A   Clear
3:53 PM 30.0 °F 23.2 °F 1.0 °F 29% 30.45 in 10.0 mi NE 6.9 mph - N/A   Clear
4:53 PM 28.0 °F 22.8 °F -0.9 °F 29% 30.46 in 10.0 mi NE 4.6 mph - N/A   Clear
5:53 PM 26.1 °F 20.5 °F -0.0 °F 32% 30.47 in 10.0 mi NE 4.6 mph - N/A   Clear
6:53 PM 25.0 °F 16.3 °F 1.9 °F 37% 30.48 in 10.0 mi ENE 8.1 mph - N/A   Clear
7:53 PM 24.1 °F 16.0 °F 1.9 °F 38% 30.48 in 10.0 mi ENE 6.9 mph - N/A   Clear
8:53 PM 23.0 °F 14.7 °F 3.0 °F 42% 30.47 in 10.0 mi ENE 6.9 mph - N/A   Clear
9:53 PM 21.9 °F 12.5 °F 3.0 °F 44% 30.45 in 10.0 mi East 8.1 mph - N/A   Clear
10:53 PM 21.0 °F 12.4 °F 3.0 °F 46% 30.43 in 10.0 mi ENE 6.9 mph - N/A   Clear
11:53 PM 21.0 °F 14.6 °F 1.9 °F 44% 30.42 in 10.0 mi East 4.6 mph - N/A   Clear